Weather History for KMYV - February, 2013

Change the Weather History Date:

Wednesday, February 6, 2013

  Actual Average Record
Temperature  
Mean Temperature 48 °F -  
Max Temperature 60 °F 57 °F 73 °F (2011)
Min Temperature 35 °F 39 °F 24 °F (1989)
Degree Days  
Heating Degree Days 18    
Moisture  
Dew Point 39 °F    
Average Humidity 87    
Maximum Humidity 100    
Minimum Humidity 44    
Precipitation  
Precipitation 0.00 in - - ()
Sea Level Pressure  
Sea Level Pressure 30.15 in    
Wind  
Wind Speed 2 mph (North)    
Max Wind Speed 15 mph    
Max Gust Speed -    
Visibility 4 miles    
Events Fog    
Averages and records for this station are not official NWS values.
T = Trace of Precipitation, MM = Missing Value Source: NWS Daily Summary

Daily Weather History Graph

Daily Weather History Graph

Search for Another Location

Airport or City:

Trip Planner

Search our weather history database for the weather conditions in past years. The results will help you decide how hot, cold, wet, or windy it might be!

Date:

Astronomy

Feb. 06, 2013 Rise Set
Actual Time 7:07 AM PST 5:33 PM PST
Civil Twilight 6:39 AM PST 6:01 PM PST
Nautical Twilight 6:08 AM PST 6:33 PM PST
Astronomical Twilight 5:36 AM PST 7:04 PM PST
Moon 3:55 AM PST (2/6) 1:58 PM PST (2/6)
Length of Visible Light 11h 21m
Length of Day
10h 25m
Waning Crescent, 16% of the Moon is Illuminated
Feb 6
Waning Crescent
Feb 9
New
Feb 17
First Quarter
Feb 25
Full
Mar 4
Last Quarter

Hourly Weather History & Observations

Time (PST) Temp. Windchill Dew Point Humidity Pressure Visibility Wind Dir Wind Speed Gust Speed Precip Events Conditions
12:46 AM 44.6 °F - 42.8 °F 93% 30.15 in 5.0 mi Calm Calm - N/A   Scattered Clouds
12:53 AM 44.1 °F - 42.1 °F 93% 30.16 in 5.0 mi Calm Calm - N/A   Partly Cloudy
1:23 AM 39.2 °F - 37.4 °F 93% 30.15 in 1.8 mi Calm Calm - N/A   Clear
1:26 AM 39.2 °F - 37.4 °F 93% 30.15 in 0.8 mi Calm Calm - N/A   Clear
1:37 AM 39.2 °F - 39.2 °F 100% 30.15 in 0.2 mi Calm Calm - N/A Fog Fog
1:44 AM 41.0 °F - 39.2 °F 93% 30.15 in 0.2 mi Calm Calm - N/A Fog Fog
1:48 AM 41.0 °F - 39.2 °F 93% 30.15 in 1.0 mi Calm Calm - N/A   Clear
1:50 AM 41.0 °F - 39.2 °F 93% 30.15 in 2.0 mi Calm Calm - N/A   Clear
1:53 AM 39.9 °F - 39.9 °F 100% 30.16 in 2.5 mi Calm Calm - N/A   Clear
2:00 AM 39.2 °F - 39.2 °F 100% 30.14 in 3.0 mi Calm Calm - N/A   Clear
2:09 AM 39.2 °F 35.9 °F 39.2 °F 100% 30.15 in 2.0 mi North 4.6 mph - N/A   Clear
2:20 AM 37.4 °F 33.8 °F 37.4 °F 100% 30.14 in 3.0 mi NNW 4.6 mph - N/A   Clear
2:49 AM 41.0 °F 38.0 °F 39.2 °F 93% 30.14 in 2.5 mi North 4.6 mph - N/A   Clear
2:53 AM 39.9 °F 37.8 °F 39.0 °F 97% 30.15 in 3.0 mi North 3.5 mph - N/A   Clear
3:13 AM 37.4 °F 34.9 °F 37.4 °F 100% 30.13 in 1.8 mi NNW 3.5 mph - N/A   Clear
3:16 AM 37.4 °F 34.9 °F 37.4 °F 100% 30.13 in 0.8 mi WNW 3.5 mph - N/A   Clear
3:30 AM 35.6 °F 32.8 °F 35.6 °F 100% 30.14 in 0.2 mi NW 3.5 mph - N/A Fog Fog
3:51 AM 39.2 °F - 39.2 °F 100% 30.14 in 1.2 mi Calm Calm - N/A   Partly Cloudy
3:53 AM 39.9 °F - 39.0 °F 97% 30.15 in 1.0 mi Calm Calm - N/A   Mist
4:04 AM 37.4 °F - 37.4 °F 100% 30.14 in 0.8 mi Calm Calm - N/A   Clear
4:07 AM 35.6 °F - 35.6 °F 100% 30.14 in 0.2 mi Calm Calm - N/A Fog Fog
4:49 AM 35.6 °F 31.7 °F 33.8 °F 93% 30.14 in 0.2 mi NNW 4.6 mph - N/A Fog Fog
4:53 AM 36.0 °F 33.3 °F 36.0 °F 100% 30.16 in 0.2 mi North 3.5 mph - N/A Fog Fog
5:16 AM 39.2 °F 35.9 °F 39.2 °F 100% 30.14 in 0.2 mi North 4.6 mph - N/A Fog Fog
5:53 AM 39.0 °F 35.7 °F 39.0 °F 100% 30.16 in 0.2 mi NNE 4.6 mph - N/A Fog Fog
6:18 AM 37.4 °F 34.9 °F 37.4 °F 100% 30.16 in 0.2 mi NE 3.5 mph - N/A Fog Fog
6:31 AM 37.4 °F 34.9 °F 37.4 °F 100% 30.16 in 0.2 mi NNE 3.5 mph - N/A Fog Fog
6:53 AM 37.0 °F 34.5 °F 37.0 °F 100% 30.18 in 0.2 mi NNE 3.5 mph - N/A Fog Fog
7:53 AM 37.9 °F 34.4 °F 37.9 °F 100% 30.19 in 0.2 mi NNE 4.6 mph - N/A Fog Fog
8:37 AM 39.2 °F - 39.2 °F 100% 30.18 in 0.2 mi Calm Calm - N/A Fog Fog
8:53 AM 39.9 °F 36.7 °F 39.9 °F 100% 30.19 in 1.8 mi NNW 4.6 mph - N/A   Mostly Cloudy
9:05 AM 41.0 °F 38.0 °F 39.2 °F 93% 30.18 in 4.0 mi North 4.6 mph - N/A   Partly Cloudy
9:53 AM 46.0 °F 43.9 °F 41.0 °F 83% 30.20 in 8.0 mi NNW 4.6 mph - N/A   Clear
10:53 AM 51.1 °F - 41.0 °F 68% 30.19 in 10.0 mi North 5.8 mph - N/A   Clear
11:53 AM 54.0 °F - 42.1 °F 64% 30.18 in 10.0 mi WSW 5.8 mph - N/A   Clear
12:53 PM 57.0 °F - 39.0 °F 51% 30.15 in 10.0 mi North 4.6 mph - N/A   Clear
1:53 PM 60.1 °F - 39.0 °F 46% 30.12 in 10.0 mi Variable 3.5 mph - N/A   Clear
2:53 PM 60.1 °F - 37.9 °F 44% 30.11 in 10.0 mi SSW 3.5 mph - N/A   Clear
3:53 PM 59.0 °F - 37.0 °F 44% 30.11 in 10.0 mi South 4.6 mph - N/A   Clear
4:53 PM 57.0 °F - 36.0 °F 45% 30.11 in 10.0 mi South 6.9 mph - N/A   Clear
5:53 PM 53.1 °F - 42.1 °F 66% 30.11 in 10.0 mi SE 8.1 mph - N/A   Clear
6:53 PM 50.0 °F - 41.0 °F 71% 30.12 in 10.0 mi SE 5.8 mph - N/A   Clear
7:53 PM 48.9 °F - 42.1 °F 77% 30.12 in 10.0 mi SE 9.2 mph - N/A   Clear
8:53 PM 48.9 °F - 41.0 °F 74% 30.13 in 10.0 mi SE 11.5 mph - N/A   Clear
9:53 PM 46.9 °F - 41.0 °F 80% 30.14 in 10.0 mi South 6.9 mph - N/A   Clear
10:53 PM 46.9 °F - 41.0 °F 80% 30.14 in 10.0 mi SSE 15.0 mph - N/A   Clear
11:53 PM 46.0 °F 40.2 °F 41.0 °F 83% 30.15 in 10.0 mi SE 12.7 mph - N/A   Clear